Regional Weather Roundup
Issued by NWS Northern Indiana

Home | Current Version | Previous Version | Text Only | Print | Product List | Glossary Off
Versions: 1 2 3 4 5 6 7 8 9 10 11 12 13 14 15 16 17 18 19 20 21 22 23 24 25 26 27 28 29 30 31 32 33 34 35 36 37 38 39 40 41 42 43 44 45 46 47 48 49 50

000
ASUS43 KIWX 022210
RWRIWX

KIWX WEATHER ROUNDUP
NATIONAL WEATHER SERVICE NORTHERN INDIANA
500 PM EST FRI DEC 02 2016

NOTE: "FAIR" INDICATES FEW OR NO CLOUDS BELOW 12,000 FEET WITH NO
SIGNIFICANT WEATHER AND/OR OBSTRUCTIONS TO VISIBILITY.

* THESE STATIONS ARE NOT UNDER NWS QUALITY CONTROL. THEY ALSO MAY NOT
  REPORT WEATHER SUCH AS PRECIPITATION OR FOG.

INZ001>027-022300-
NORTHERN INDIANA

CITY           SKY/WX    TMP DP  RH WIND       PRES   REMARKS
GARY*          CLOUDY    41  32  70 W9        30.23R
VALPARAISO     CLOUDY    39  31  72 W6        30.22R
MICHIGAN CITY* CLOUDY    37  30  75 NW8       30.22S
LAPORTE*       CLOUDY    39  35  87 N10       30.22R
KNOX*          CLOUDY    37  16  41 W6        30.22R
SOUTH BEND     CLOUDY    36  29  75 N9        30.21R
ELKHART*       CLOUDY    37  27  65 NW5       30.19S
GOSHEN         CLOUDY    37  27  67 NW8       30.20R
MONTICELLO*    CLOUDY    38  28  66 W6        30.23R
LOGANSPORT*    CLOUDY    37  32  81 W6        30.23R
ROCHESTER*     CLOUDY    41  34  75 W6        30.22R
WARSAW*        CLOUDY    36  32  87 W6        30.21R
ANGOLA*        CLOUDY    36  28  75 NW10      30.17R
FORT WAYNE     CLOUDY    38  30  73 W8        30.20R
HUNTINGTON*    CLOUDY    38  32  79 W8        30.20R
PERU/GRISSOM   CLOUDY    37  34  87 W8        30.21R
MARION*        CLOUDY    36  33  87 W9        30.22S FOG

$$
INZ028>050-022300-
CENTRAL INDIANA

CITY           SKY/WX    TMP DP  RH WIND       PRES   REMARKS
LAFAYETTE      LGT RAIN  37  33  85 W8        30.25R
KOKOMO*        CLOUDY    38  32  79 W9        30.23R
MUNCIE*        CLOUDY    37  32  82 NW8       30.23R
INDIANAPOLIS   CLOUDY    40  32  73 W10       30.24S

$$
MIZ043>046-050>051-056>058-064>065-071>073-077>080-022300-
SOUTHWEST LOWER MICHIGAN

CITY           SKY/WX    TMP DP  RH WIND       PRES   REMARKS
BATTLE CREEK   CLOUDY    36  30  79 NW6       30.17R
BENTON HARBOR  CLOUDY    38  25  59 W7        30.21R
COLDWATER*     CLOUDY    37  28  69 W8        30.17R
HILLSDALE*     CLOUDY    36  28  75 NW12      30.14S
HOLLAND        CLOUDY    37  27  67 NW6       30.19R
GRAND RAPIDS   CLOUDY    36  25  64 NW12      30.18R
KALAMAZOO      CLOUDY    37  26  64 NW12      30.18R
STURGIS*       CLOUDY    37  28  71 NW9       30.18R
THREE RIVERS*  CLOUDY    37  30  74 W10       30.19R

$$
OHZ001>008-015>018-024>025-022300-
NORTHWEST OHIO

CITY           SKY/WX    TMP DP  RH WIND       PRES   REMARKS
WAUSEON*       CLOUDY    39  28  65 NW14      30.16R
DEFIANCE       CLOUDY    39  32  76 W5        30.18R
FINDLAY        CLOUDY    40  31  70 W16       30.15R
TOLEDO EXPRESS CLOUDY    38  29  70 W16G23    30.16R
TOLEDO METCALF CLOUDY    39  31  72 NW16      30.16R
LIMA           CLOUDY    38  32  79 W15       30.17R

$$
AND FOR LAKE MICHIGAN COASTAL AND OPEN LAKE BUOY OBSERVATIONS

STATION/POSITION TEMP    WIND        PRES    VSBY  WAVE
                 AIR SEA DIR/SP/G                  HT/PER
                 (F)     (DEG/KT/KT) (MB)    (MI)  (FT/S)
CALUMET HARBOR    39     290/  7/ 10 1022.6
MICHIGAN CITY     38     320/ 18/ 20   N/A
BURNS HARBOR      40     320/ 12/ 14 1023.7R
SAINT JOSEPH      39     310/ 12/ 17 1024.0
SOUTH LAKE BUOY   38 49  320/ 12/ 16 1023.0R         3/ 6

$$
&&



USA.gov is the U.S. government's official web portal to all federal, state and local government web resources and services.